Wallington, NJ (07057)

10:54 PM EDT on July 25, 2016 (GMT -0400)
Wallington Weather Station Gaweda | | Change Station

Elev 23 ft 40.85 °N, 74.11 °W | Updated 5 seconds ago

Overcast
Overcast
74.7 °F
Feels Like 73 °F
N
3.0
Wind Variable Wind from SSE
Gusts 3.0 mph

Today
High -- | Low -- °F
--% Chance of Precip.
Yesterday
High -- | Low -- °F
Precip. -- in
Pressure 29.87 in
Visibility 10.0 miles
Clouds Overcast 900 ft
Heat Index 73 °F
Dew Point 72 °F
Humidity 91%
Rainfall 0.54 in
Snow Depth Not available.
5:46 AM 8:18 PM
Waning Gibbous, 59% visible
METAR KTEB 260251Z 25005KT 10SM OVC009 24/23 A2987 RMK AO2 SLP114 60000 T02440228 53003
Pressure 29.87 in
Visibility 10.0 miles
Clouds Overcast 900 ft
Heat Index 73 °F
Dew Point 72 °F
Humidity 91%
Rainfall 0.54 in
Snow Depth Not available.
5:46 AM 8:18 PM
Waning Gibbous, 59% visible
METAR KTEB 260251Z 25005KT 10SM OVC009 24/23 A2987 RMK AO2 SLP114 60000 T02440228 53003
Record highs are possible for parts of the Northeast Monday and Tuesday, as parts of the central U.S. take a little breather from the worst of summer's dog day heat.

Expansive high pressure in the upper atmosphere will focus on parts of the East and West this week, sending heat indices well into the triple digits from the Mid-Atlantic states into the South.

10-Day Weather Forecast

Almanac

Astronomy

Jul. 25, 2016 Rise Set
Actual Time
Civil Twilight
Nautical Twilight
Astronomical Twilight
Moon
Length of Visible Light
Length of Day
Tomorrow will be .
, % of the Moon is Illuminated

Today's Extremes

State Highs State Lows

Community

WunderPhotos

Upload Photos

1,927,505 photos uploaded!

WunderBlog® & News

Nearby

Air Quality

  Air Quality AQ Index Pollutant
Not available.

Snow Depth

Station Depth Elevation

Earthquake Activity

City Distance Mag. Time & Date
Minimum magnitude displayed is 2.5.

Coastal Water Temperatures

Place Temperature

Stations

Nearby Weather Stations

Station Location Temp. Windchill Dew Point Humidity Wind Precip. Elev Updated Type
                   

Watches & Warnings

There are currently no watches in effect.